Tracking 19193 objects as of 22-Jun-2018
HD Live streaming from Space Station
objects crossing your sky now

FENGYUN 1C DEB

Track FENGYUN 1C DEB now!
10-day predictions


NORAD ID: 32357
Int'l Code: 1999-025CZA
Perigee: 663.8 km
Apogee: 1,519.1 km
Inclination: 98.9 °
Period: 106.9 minutes
Semi major axis: 7462 km
RCS: 0.0112 m2 (small)
Launch date: May 10, 1999
Source: People's Republic of China (PRC)
Launch site: Taiyaun Space Center, China (TSC)

Note: This is SATELLITE DEBRIS
aabbcc
Your satellite tracking list
Your tracking list is empty




NASA's NSSDC Master Catalog

Two Line Element Set (TLE):
1 32357U 99025CZA 18170.57208542  .00000428  00000-0  28132-3 0  9998
2 32357  98.9099  82.1734 0573074  20.6578  95.2278 13.46736226539184
Source of the keplerian elements: AFSPC